STARLINK-32843, 62814

Orbit data source: Space-Track

STARLINK-32843, 62814 is a payload satellite owned by SpaceX/Seattle (US) in LEO that was launched on Fri, 24 Jan 2025 UTC via an FALCON 9 launch vehicle from the Air Force Western Test Range (AFWTR). Payload-class satellites include a variety of spacecraft equipped with specific instruments for various scientific and technological missions. These include communications satellites like Starlink; space stations such as the ISS; scientific satellites like the Hubble; Earth observation satellites from companies like Planet Labs, Umbra, and HawkEye 360; GPS; miniature CubeSats for education and research; and military/defense satellites.

Loading next visibility...
Identifier
62814, 2025-018J
Orbit
LEO
Last TLE update
11 hours ago
Origin
Manufacturer
SpaceX/Seattle
Mission
Operational Commercial Communications
Bus & Motor
STARLINK V2M, Unknown motor
Mass
730 kg wet, ~700 kg dry
Launch date (UTC)
2025-01-24 (3 months ago)
Launch vehicle
FALCON 9
Launch site
Air Force Western Test Range (AFWTR)
Object type
Payload
Rocket body
Debris
Shape & HBR
Box + 2 Pan, 29 m
Radar Cross Section
33.884 m², Large (>1 m²)

Expand to show TLE details & history

TLE from 11 hours ago
0 STARLINK-32843
1 62814U 25018J   25128.77828256  .00003502  00000-0  97535-4 0  9993
2 62814  53.1620 287.4004 0001377  87.7694 272.3469 15.39607144 16464
Epoch: 2025-05-08T18:40Z
Definitive object data (Epoch: 2025-05-08T18:40:43.613Z)
Latitude
0.00003°
Longitude
140.37481°
Altitude
448.135 km
Speed
7.645 km/s
True Right ascension
19h 09m 36s
True Declination
0° 00' 00"
Sunlit
Object was in full shadow at TLE epoch
Visualization TLE readout
Latitude
-8.54464°
Longitude
131.8156°
Altitude
449.824 km
Speed
7.643 km/s
Apparent Right ascension
21h 20m 08s
Apparent Declination
-35° 26' 43"
Sunlit
Object is in full shadow
Visualization observer readout
Local Sidereal Time
13:40:59
Azimuth
106.966° ESE
Elevation
-39.352°
Doppler factor
1
Orbital elements
Apogee altitude
448.467 km
Perigee altitude
446.587 km
Semi-major axis
6,825.664 km
Eccentricity
0.0001377
Inclination
53.162°
RAAN
287.4004°
Arg. of periapsis
87.7694°
True anomaly
272.33113°
Mean anomaly
272.3469°
Eccentric anomaly
272.33902°
Mean motion
3.8488 °/min
BSTAR
0.000097535
Orbital period
93.54 mins
Loading maneuver chart data...
Loading SW <> Apogee altitude chart data...
Loading historical data...
Loading historical data...
Loading historical data...
Loading historical data...
Loading historical data...
Loading historical data...
Loading historical data...

STARLINK-32843 Visibility forecast

Observer location: undefined°, undefined°

Span
Click to sort rows by Start time (UTC) header in descending order
Start Az.
Max El. time (UTC)
Max El. Az.
Max El.
End time (UTC)
End Az.
5 mins2025-05-09 13:35:18.474Z250.785° W2025-05-09 13:37:18.474Z357.505° N39.728°2025-05-09 13:40:18.474Z43.989° NE
5 mins2025-05-09 20:07:18.474Z306.169° NW2025-05-09 20:09:18.474Z261.424° W44.175°2025-05-09 20:12:18.474Z135.658° SSE
|